Regional Weather Roundup
Issued by NWS

Home | Current Version | Previous Version | Text Only | Print | Product List | Glossary Off
Versions: 1 2 3 4 5 6 7 8 9 10 11 12 13 14 15 16 17 18 19 20 21 22 23 24 25 26 27 28 29 30 31 32 33 34 35 36 37 38 39 40 41 42 43 44 45 46 47 48 49 50

000
ASUS43 KLSX 221959
RWRMO

WEATHER SUMMARY FOR MISSOURI
NATIONAL WEATHER SERVICE SPRINGFIELD MO
300 PM CDT MON SEP 22 2014

NOTE: "FAIR" INDICATES FEW OR NO CLOUDS BELOW 12,000 FEET WITH NO
       SIGNIFICANT WEATHER AND/OR OBSTRUCTIONS TO VISIBILITY.
       CURRENT SKY AND/OR WEATHER CONDITIONS ARE NOT AVAILABLE FOR
       CHILLICOTHE AND FARMINGTON.

MOZ001>031-035>038-043-044-053-054-222100-
...NORTHERN AND WESTERN MISSOURI...

CITY           SKY/WX    TMP DP  RH WIND       PRES   REMARKS
KANSAS CTY INT MOSUNNY   72  51  47 E5        30.27F
KANSAS C DTWN  SUNNY     74  50  42 CALM      30.25F
LEE`S SUMMIT   SUNNY     71  48  43 SE6       30.27F
ST JOSEPH      SUNNY     74  50  42 S5        30.26F

$$
MOZ066>068-077>081-088>096-101>105-222100-
...SOUTHWEST MISSOURI...

CITY           SKY/WX    TMP DP  RH WIND       PRES   REMARKS
SPRINGFIELD    SUNNY     73  49  42 E8        30.26F
JOPLIN         SUNNY     73  51  46 NE6       30.26F

$$
MOZ032>034-039>042-045>050-055>058-069>072-222100-
...CENTRAL MISSOURI...

CITY           SKY/WX    TMP DP  RH WIND       PRES   REMARKS
COLUMBIA       SUNNY     72  48  42 E6        30.27F
JEFFERSON CITY SUNNY     73  47  39 S5        30.25F
ROLLA          SUNNY     71  47  42 VRB6      30.25F
SEDALIA        SUNNY     74  50  42 NE8       30.27F
OSAGE BEACH    SUNNY     72  46  40 E7        30.26F

$$
MOZ051-052-059>065-222100-
...EAST CENTRAL MISSOURI...

CITY           SKY/WX    TMP DP  RH WIND       PRES   REMARKS
ST LOUIS INTL  SUNNY     74  49  41 N7        30.26F
SPIRIT OF STL  SUNNY     71  46  40 CALM      30.25F
ST CHARLES     SUNNY     72  47  40 CALM      30.25F

$$
MOZ072>076-082>087-097>100-106>115-222100-
...SOUTH CENTRAL AND SOUTHEAST MISSOURI...

CITY           SKY/WX    TMP DP  RH WIND       PRES   REMARKS
CAPE GIRARDEAU SUNNY     73  47  39 NE10      30.23F
FARMINGTON     SUNNY     72  46  40 W6        30.27F
POPLAR BLUFF   SUNNY     74  48  39 MISG      30.21F
WEST PLAINS    SUNNY     73  49  42 E7        30.26F

$$



USA.gov is the U.S. government's official web portal to all federal, state and local government web resources and services.